Weather History for Liberia, Costa Rica

Change the Weather History Date:

Saturday, October 27, 2012

  Actual Average Record
Temperature  
Mean Temperature 79 °F -  
Max Temperature 87 °F 85 °F - ()
Min Temperature 71 °F 72 °F - ()
Cooling Degree Days 14    
Growing Degree Days 29 (Base 50)    
Moisture  
Dew Point 74 °F    
Average Humidity 80    
Maximum Humidity 100    
Minimum Humidity 61    
Precipitation  
Precipitation 0.16 in - - ()
Sea Level Pressure  
Sea Level Pressure 29.83 in    
Wind  
Wind Speed 3 mph ()    
Max Wind Speed 9 mph    
Max Gust Speed -    
Visibility 6.7 miles    
Events Fog , Rain    
T = Trace of Precipitation, MM = Missing Value Source: Averaged Metar Reports

Daily Weather History Graph

Daily Weather History Graph

Search for Another Location

Airport:

Trip Planner

Search our weather history database for the weather conditions in past years. The results will help you decide how hot, cold, wet, or windy it might be!

Date:

Astronomy

Oct. 27, 2012 Rise Set
Actual Time 5:32 AM CST 5:19 PM CST
Civil Twilight 5:10 AM CST 5:40 PM CST
Nautical Twilight 4:45 AM CST 6:05 PM CST
Astronomical Twilight 4:21 AM CST 6:30 PM CST
Moon 3:54 PM CST (10/27) 3:42 AM CST (10/27)
Length of Visible Light 12h 30m
Length of Day
11h 47m
Waxing Gibbous, 96% of the Moon is Illuminated
Oct 27
Waxing Gibbous
Oct 29
Full
Nov 6
Last Quarter
Nov 13
New
Nov 20
First Quarter

Hourly Weather History & Observations

Time (CST) Temp. Heat Index Dew Point Humidity Pressure Visibility Wind Dir Wind Speed Gust Speed Precip Events Conditions
6:00 AM 72 °F - 72 °F 98% 29.86 in 3 mi NNW 3.5 mph - - Fog Partial Fog
6:00 AM 71.6 °F - 71.6 °F 100% 29.84 in 0.1 mi NNW 3.5 mph - N/A Fog Fog
7:00 AM 73.4 °F - 71.6 °F 94% 29.87 in 2.5 mi NE 3.5 mph - N/A   Mostly Cloudy
7:20 AM 75.2 °F - 73.4 °F 94% 29.87 in 6.2 mi Calm Calm - N/A Fog Scattered Clouds
8:00 AM 78.8 °F - 73.4 °F 83% 29.88 in 6.2 mi Calm Calm - N/A   Scattered Clouds
9:00 AM 82 °F - 73 °F 69% 29.91 in 12 mi West 4.6 mph - -   Scattered Clouds
9:00 AM 82.4 °F 88.2 °F 73.4 °F 74% 29.90 in 6.2 mi West 4.6 mph - N/A   Scattered Clouds
10:00 AM 84.2 °F 90.9 °F 73.4 °F 70% 29.89 in 6.2 mi Calm Calm - N/A   Scattered Clouds
11:00 AM 86.0 °F 93.4 °F 73.4 °F 66% 29.86 in 6.2 mi West 5.8 mph - N/A   Scattered Clouds
12:00 PM 86 °F - 74 °F 61% 29.85 in 12 mi West 8.1 mph - -   Mostly Cloudy
12:00 PM 86.0 °F 93.4 °F 73.4 °F 66% 29.83 in 6.2 mi West 8.1 mph - N/A   Scattered Clouds
1:00 PM 87.8 °F 97.6 °F 75.2 °F 66% 29.79 in 6.2 mi West 8.1 mph - N/A   Scattered Clouds
2:00 PM 87.8 °F 95.6 °F 73.4 °F 62% 29.77 in 6.2 mi West 6.9 mph - N/A Rain Light Rain
3:00 PM 85 °F - 74 °F 62% 29.77 in 12 mi West 9.2 mph - -   Partly Cloudy
3:00 PM 86.0 °F 93.4 °F 73.4 °F 66% 29.75 in 6.2 mi West 9.2 mph - N/A   Mostly Cloudy
4:00 PM 80.6 °F 86.2 °F 75.2 °F 84% 29.77 in 6.2 mi West 4.6 mph - N/A Rain Rain
5:00 PM 78.8 °F - 75.2 °F 89% 29.78 in 6.2 mi WSW 3.5 mph - N/A   Mostly Cloudy
6:00 PM 78 °F - 75 °F 89% 29.81 in 12 mi Calm Calm - -   Overcast
6:00 PM 78.8 °F - 75.2 °F 89% 29.80 in 6.2 mi Calm Calm - N/A   Mostly Cloudy
7:00 PM 77.0 °F - 75.2 °F 94% 29.82 in 6.2 mi SE 3.5 mph - N/A   Mostly Cloudy
8:00 PM 77.0 °F - 75.2 °F 94% 29.85 in 6.2 mi Calm Calm - N/A   Mostly Cloudy